Volver al catálogo

USA 346

ActivoMilitarGEO
NORAD 57836·PAYLOAD·🇺🇸 United States

Lanzado Sep 10, 2023 desde Cape Canaveral Space Force Station

Loading…

TLE

ObsoletoSource: Mike McCants

Época: Jun 14, 2025, 04:49 UTC

1 57836U 23140A   25165.20101659 0.00000000  00000-0  00000-0 0    05
2 57836  12.3140   7.1362 0000620 127.0857 232.9143  1.00270817    09

Sigue USA 346 en tiempo real con AllMySat

Download on the App Store